This is the latest recevied weather packets stored in our database for station/object KE1THD. If no packets are shown the sender has not sent any weather packets the latest 10 day(s).
| Time | Temp. | Humidity | Pressure | Rain* | Wind** | Luminosity | Snow |
|---|---|---|---|---|---|---|---|
| 1777572460 | 12.78° C | 63% | 1016.1 hPa | 0 mm | - | 373 W/m² | - |
| 1777572156 | 12.78° C | 63% | 1016 hPa | 0 mm | - | 272 W/m² | - |
| 1777571851 | 12.78° C | 65% | 1016.2 hPa | 0 mm | - | 295 W/m² | - |
| 1777571547 | 12.78° C | 63% | 1016.1 hPa | 0 mm | - | 331 W/m² | - |
| 1777571244 | 12.78° C | 61% | 1016.3 hPa | 0 mm | - | 360 W/m² | - |
| 1777570940 | 12.78° C | 62% | 1016.5 hPa | 0 mm | - | 327 W/m² | - |
| 1777570636 | 12.78° C | 61% | 1016.4 hPa | 0 mm | - | 332 W/m² | - |
| 1777570333 | 13.33° C | 61% | 1016.4 hPa | 0 mm | - | 267 W/m² | - |
| 1777570029 | 12.78° C | 63% | 1016.4 hPa | 0 mm | - | 269 W/m² | - |
| 1777569724 | 12.78° C | 61% | 1016.6 hPa | 0 mm | - | 301 W/m² | - |
| 1777569420 | 12.78° C | 60% | 1016.6 hPa | 0 mm | - | 337 W/m² | - |
| 1777569116 | 12.78° C | 59% | 1016.7 hPa | 0 mm | - | 269 W/m² | - |
| 1777568814 | 12.78° C | 57% | 1016.4 hPa | 0 mm | - | 232 W/m² | - |
| 1777568511 | 12.78° C | 58% | 1016.6 hPa | 0 mm | - | 136 W/m² | - |
| 1777568207 | 13.33° C | 56% | 1016.6 hPa | 0 mm | - | 112 W/m² | - |
| 1777567905 | 13.33° C | 55% | 1016.4 hPa | 0 mm | - | 235 W/m² | - |
| 1777567601 | 13.89° C | 54% | 1016.5 hPa | 0 mm | - | 171 W/m² | - |
| 1777567298 | 13.89° C | 56% | 1016.5 hPa | 0 mm | - | 241 W/m² | - |
| 1777566997 | 13.89° C | 54% | 1016.4 hPa | 0 mm | - | 391 W/m² | - |
| 1777566694 | 13.89° C | 54% | 1016.4 hPa | 0 mm | - | 517 W/m² | - |
| 1777566391 | 13.89° C | 53% | 1016.6 hPa | 0 mm | - | 402 W/m² | - |
| 1777566088 | 13.89° C | 53% | 1016.7 hPa | 0 mm | - | 458 W/m² | - |
| 1777565784 | 14.44° C | 51% | 1016.4 hPa | 0 mm | - | 387 W/m² | - |
| 1777565481 | 14.44° C | 52% | 1016.5 hPa | 0 mm | - | 478 W/m² | - |
| 1777565177 | 13.89° C | 50% | 1016.6 hPa | 0 mm | - | 715 W/m² | - |
* Rain latest hour (hover to see other rain measurements)
** Current wind speed in m/s (hover to see current wind gust speed)